Regional Weather Roundup
Issued by NWS

Home | Current Version | Previous Version | Text Only | Print | Product List | Glossary On
Versions: 1 2 3 4 5 6 7 8 9 10 11 12 13 14 15 16 17 18 19 20 21 22 23 24 25 26 27 28
000
ASUS42 KKEY 272110
RWRKEY

FLORIDA REGIONAL WEATHER ROUNDUP FOR THE FLORIDA KEYS
NATIONAL WEATHER SERVICE KEY WEST FLORIDA
500 PM EDT FRI MAY 27 2016

...SOUTH FLORIDA AND THE KEYS...

CITY           SKY/WX    TMP DP  RH WIND       PRES   REMARKS
FORT MYERS     MOSUNNY   90  60  36 E8        29.91F
SW REGIONAL AP MOSUNNY   90  59  35 E10G17    29.92F
NAPLES         MOSUNNY   86  68  54 W14       29.91F
MIAMI          PTSUNNY   85  70  60 E18       29.92F
WEST KENDALL   CLOUDY    82  70  66 E12       29.92F
HOMESTEAD      MOSUNNY   82  72  71 NE8       29.92F
MARATHON       SUNNY     86  69  56 SE6       29.92F HX  90
BOCA CHICA NAS MOSUNNY   86  70  58 E10       29.92F HX  90
KEY WEST INTL  SUNNY     84  70  62 E12       29.92F

...INTERNATIONAL WEATHER...

CITY           SKY/WX    TMP DP  RH WIND       PRES   REMARKS
NASSAU BAHAMAS NOT AVBL
CANCUN MEXICO  MOSUNNY   86  75  70 E16       29.84F HX  95
COZUMEL MEXICO MOSUNNY   86  73  66 SE12      29.84F HX  93

ADJACENT COASTAL WATERS...

STATION/POSITION TIME  SKY/WX   TEMP    WIND        PRES    WAVE
                                AIR SEA DIR/SP/G            HT/PER
                 (UTC)          (F)     (DEG/KT/KT) (MB)    (FT/S)
PULASKI SHOAL LI 2100            79     100/ 13/ 15 1013.3F
SAND KEY         2050            80     110/ 11/ 13 1013.7F
SOMBRERO KEY     NOT AVBL
LONG KEY         2000            81 83   40/  4/  5 1013.9F
MOLASSES REEF    2100            81 84  100/  8/  9 1013.5F
FOWEY ROCKS      2100            80 83   60/ 12/ 14 1013.9F

$$




USA.gov is the U.S. government's official web portal to all federal, state and local government web resources and services.